Вернуться в каталог

SL-12 R/B(2)

АктивенGEO
NORAD 28240·ROCKET BODY·🇷🇺 Russia

Запущен Apr 26, 2004 с Baikonur Cosmodrome

Loading…

TLE

СвежийSource: Space-Track

Эпоха: Sep 14, 2026, 17:49 UTC

1 28240U 04015D   26257.74251412 -.00000323  00000-0  00000-0 0  9993
2 28240  13.3969  13.6823 0016304 331.4235  41.5714  1.00712985 82316

Отслеживайте SL-12 R/B(2) в реальном времени с AllMySat

Download on the App Store